Weather History for New Philadelphia, OH

Change the Weather History Date:

Sunday, December 22, 2013

  Actual Average Record
Temperature  
Mean Temperature 59 °F 31 °F  
Max Temperature 70 °F 39 °F 70 °F (2013)
Min Temperature 48 °F 23 °F -16 °F (1989)
Degree Days  
Heating Degree Days 6 34  
Month to date heating degree days 673 688  
Since 1 July heating degree days 1909 1846  
Cooling Degree Days 0 0  
Month to date cooling degree days 0 0  
Year to date cooling degree days 755 697  
Growing Degree Days 8 (Base 50)    
Moisture  
Dew Point 50 °F    
Average Humidity 70    
Maximum Humidity 84    
Minimum Humidity 55    
Precipitation  
Precipitation 0.42 in 0.10 in 0.77 in (1983)
Month to date precipitation 3.10 1.93  
Year to date precipitation 34.34 38.16  
Sea Level Pressure  
Sea Level Pressure 29.78 in    
Wind  
Wind Speed 11 mph (SW)    
Max Wind Speed 28 mph    
Max Gust Speed 46 mph    
Visibility 9 miles    
Events Rain    
T = Trace of Precipitation, MM = Missing Value Source: NWS Daily Summary

Daily Weather History Graph

Daily Weather History Graph

Search for Another Location

Airport:

Trip Planner

Search our weather history database for the weather conditions in past years. The results will help you decide how hot, cold, wet, or windy it might be!

Date:

Astronomy

Dec. 22, 2013 Rise Set
Actual Time 7:46 AM EST 5:02 PM EST
Civil Twilight 7:15 AM EST 5:33 PM EST
Nautical Twilight 6:40 AM EST 6:08 PM EST
Astronomical Twilight 6:07 AM EST 6:41 PM EST
Moon 10:15 PM EST (12/22) 10:40 AM EST (12/22)
Length of Visible Light 10h 18m
Length of Day
9h 16m
Waning Gibbous, 77% of the Moon is Illuminated
Dec 22
Waning Gibbous
Dec 25
Last Quarter
Jan 1
New
Jan 7
First Quarter
Jan 15
Full

Hourly Weather History & Observations

Time (EST) Temp. Dew Point Humidity Pressure Visibility Wind Dir Wind Speed Gust Speed Precip Events Conditions
12:53 AM 69.1 °F 55.9 °F 63% 29.49 in 10.0 mi South 29.9 mph 46.0 mph N/A   Mostly Cloudy
1:53 AM 66.0 °F 57.9 °F 75% 29.62 in 2.0 mi WSW 25.3 mph 38.0 mph 0.12 in Rain Light Rain
1:57 AM 62.6 °F 57.2 °F 82% 29.62 in 1.5 mi WSW 16.1 mph 38.0 mph 0.04 in Rain Heavy Rain
2:04 AM 62.6 °F 57.2 °F 82% 29.61 in 3.0 mi WSW 15.0 mph 31.1 mph 0.06 in Rain Rain
2:53 AM 62.1 °F 57.9 °F 86% 29.67 in 9.0 mi West 12.7 mph 19.6 mph 0.10 in Rain Light Rain
3:53 AM 62.1 °F 57.9 °F 86% 29.71 in 10.0 mi Variable 5.8 mph - 0.02 in Rain Light Rain
4:53 AM 62.1 °F 57.0 °F 84% 29.69 in 10.0 mi South 9.2 mph 17.3 mph 0.03 in Rain Light Rain
5:53 AM 61.0 °F 55.9 °F 83% 29.69 in 10.0 mi South 11.5 mph 24.2 mph 0.04 in Rain Light Rain
6:53 AM 60.1 °F 55.0 °F 83% 29.68 in 10.0 mi South 17.3 mph 28.8 mph 0.07 in Rain Light Rain
7:53 AM 61.0 °F 54.0 °F 78% 29.66 in 10.0 mi South 11.5 mph 28.8 mph 0.01 in   Mostly Cloudy
8:53 AM 62.1 °F 53.1 °F 72% 29.71 in 10.0 mi South 15.0 mph 27.6 mph 0.00 in   Overcast
9:53 AM 62.1 °F 53.1 °F 72% 29.72 in 10.0 mi South 15.0 mph 23.0 mph N/A   Overcast
10:23 AM 60.8 °F 53.6 °F 77% 29.73 in 10.0 mi SSW 12.7 mph 28.8 mph N/A   Overcast
10:53 AM 61.0 °F 53.1 °F 75% 29.75 in 10.0 mi SSW 13.8 mph 26.5 mph N/A   Overcast
11:04 AM 60.8 °F 53.6 °F 77% 29.76 in 10.0 mi SSW 10.4 mph 26.5 mph 0.00 in Rain Light Rain
11:11 AM 60.8 °F 53.6 °F 77% 29.76 in 10.0 mi South 16.1 mph 25.3 mph 0.00 in Rain Light Rain
11:33 AM 60.8 °F 53.6 °F 77% 29.76 in 10.0 mi SSW 10.4 mph 21.9 mph 0.00 in   Overcast
11:40 AM 60.8 °F 53.6 °F 77% 29.76 in 10.0 mi SSW 9.2 mph 20.7 mph 0.00 in   Overcast
11:53 AM 59.0 °F 54.0 °F 83% 29.76 in 2.5 mi SW 9.2 mph 18.4 mph 0.03 in Rain Heavy Rain
12:03 PM 59.0 °F 53.6 °F 82% 29.78 in 10.0 mi SSW 10.4 mph 21.9 mph 0.00 in   Overcast
12:11 PM 59.0 °F 51.8 °F 77% 29.77 in 10.0 mi SW 9.2 mph 21.9 mph 0.00 in   Overcast
12:53 PM 60.1 °F 50.0 °F 69% 29.77 in 10.0 mi SW 8.1 mph 20.7 mph 0.00 in   Mostly Cloudy
1:53 PM 60.1 °F 46.0 °F 60% 29.79 in 10.0 mi SW 12.7 mph 26.5 mph N/A   Mostly Cloudy
2:53 PM 60.1 °F 44.1 °F 55% 29.80 in 10.0 mi SW 12.7 mph 27.6 mph N/A   Clear
3:53 PM 59.0 °F 44.1 °F 58% 29.83 in 10.0 mi WSW 11.5 mph 17.3 mph N/A   Mostly Cloudy
4:53 PM 57.9 °F 43.0 °F 58% 29.84 in 10.0 mi WSW 8.1 mph 18.4 mph N/A   Overcast
5:53 PM 55.9 °F 44.1 °F 64% 29.88 in 10.0 mi SW 8.1 mph - N/A   Overcast
6:53 PM 54.0 °F 42.1 °F 64% 29.91 in 10.0 mi West 4.6 mph - N/A   Overcast
7:53 PM 53.1 °F 41.0 °F 64% 29.92 in 10.0 mi West 5.8 mph - N/A   Overcast
8:53 PM 52.0 °F 41.0 °F 66% 29.95 in 10.0 mi West 8.1 mph - N/A   Overcast
9:49 PM 50.0 °F 41.0 °F 71% 29.97 in 10.0 mi WNW 9.2 mph - N/A   Overcast
9:53 PM 50.0 °F 41.0 °F 71% 29.97 in 10.0 mi NW 8.1 mph - N/A   Overcast
10:05 PM 48.2 °F 41.0 °F 76% 29.97 in 10.0 mi WNW 4.6 mph - N/A   Overcast
10:53 PM 48.9 °F 42.1 °F 77% 29.96 in 10.0 mi Calm Calm - N/A   Overcast
11:19 PM 48.2 °F 42.8 °F 82% 29.95 in 10.0 mi Calm Calm - N/A   Overcast
11:53 PM 48.9 °F 41.0 °F 74% 29.99 in 10.0 mi Calm Calm - N/A   Overcast